Simultaneous Nadir Overpasses (SNOs) Predictions

Prediction of SNOs between NOAA-19 and TERRA Satellite Orbit:

Table of predicted SNOs for the next 14.0 days since TLE Epoch: 2/25/2017
Index Date (NOAA-19) Time (NOAA-19) Lat,Lon (NOAA-19) SZA (NOAA-19 ) Date (TERRA) Time (TERRA) Lat,Lon (TERRA) SZA (TERRA ) Distance(km) Time Diff (sec)
1 02/26/2017 01:57:59 -75.02, -19.65 96.27 02/26/2017 01:59:04 -75.05, -19.70 96.24 3.30 65
2 02/26/2017 02:49:03 74.99, 147.68 83.69 02/26/2017 02:48:31 74.97, 147.74 83.67 2.63 32
3 02/28/2017 07:31:57 75.06, 76.81 82.93 02/28/2017 07:32:48 75.06, 76.89 82.94 2.35 51
4 02/28/2017 08:22:52 -74.98,-115.70 97.16 02/28/2017 08:22:17 -74.99,-115.65 97.15 1.79 35
5 03/02/2017 13:05:46 -75.08, 173.36 97.90 03/02/2017 13:06:35 -75.06, 173.44 97.92 3.06 49
6 03/02/2017 13:56:49 74.96, -19.05 81.98 03/02/2017 13:56:02 74.98, -19.13 81.99 2.95 47
7 03/04/2017 18:39:43 75.04, -89.95 81.22 03/04/2017 18:40:20 75.06, -89.99 81.24 2.49 37
8 03/04/2017 19:30:38 -75.00, 77.43 98.84 03/04/2017 19:29:49 -75.00, 77.48 98.85 1.35 49
9 03/07/2017 00:13:31 -75.05, 6.61 99.63 03/07/2017 00:14:08 -75.05, 6.55 99.63 1.90 37
10 03/07/2017 01:04:36 75.00, 174.01 80.31 03/07/2017 01:03:35 74.97, 173.97 80.27 3.27 61
11 03/09/2017 05:47:29 75.04, 103.21 79.50 03/09/2017 05:47:54 75.05, 103.09 79.50 3.30 25
